Погода в Анурадхапуре

Шри-Ланка     8°21′28″N   80°25′18″E
темп.,
°C
ветер,
м/с
пор.,
м/с
влажн.,
%
обл.,
%
осадки,
мм/ч
давл.,
гПа
погр.,
м
12 апреля, пн
пн1223:30+24в269299 22.6 1013176
02:30+24вюв2493100 0.0 1011105
05:30+23юв239499 0.0 101276
08:30+27ю237662 0.0 1014484
11:30+32ююв235216 0.0 10131630
14:30+30всв4464100 0.3 1010404
17:30+28ссв357370 0.8 1010214
20:30+25всв248426 0.1 1012115
13 апреля, вт
вт1323:30+24вюв248625 0.1 1013117
02:30+24юв2389100 0.0 101088
05:30+23ююв229198 0.0 101126
08:30+28ююв12725 0.0 1013570
11:30+33вюв224819 0.0 10121792
14:30+35в023880 0.0 10082544
17:30+28сз356798 0.6 1009225
20:30+27св007680 0.6 101212
14 апреля, ср
ср1423:30+26юв118037 0.7 101219
02:30+24ю11875 0.0 101016
05:30+24ю22919 0.0 101030
08:30+28юз227393 0.0 1013558
11:30+34з114985 0.0 10121787
14:30+35юз214091 0.1 10071850
17:30+29зсз136776 1.8 1008100
20:30+26з1182100 10.2 101116
15 апреля, чт
чт1523:30+25юз2590100 10.4 1011151
02:30+24юз249382 0.0 1010147
05:30+24ююз269479 0.0 1010190
08:30+27юз357869 0.0 1013563
11:30+32зюз335967 0.5 10111492
14:30+30з4465100 2.9 10081093
17:30+27з3580100 7.9 1009146
20:30+26ю1287100 3.1 101125
16 апреля, пт
пт1623:30+25ююз239299 3.1 101195
02:30+25ююз2692100 0.0 1009246
05:30+24ю2693100 1.4 1010215
08:30+25юз2586100 3.3 1013131
11:30+24зюз4792100 4.1 1012342
14:30+24ююз4887100 0.0 1009297
17:30+25сз2383100 0.0 1009191
20:30+23юз239198 0.0 101180